This is the latest recevied weather packets stored in our database for station/object VE1DX. If no packets are shown the sender has not sent any weather packets the latest 10 day(s).
| Time | Temp. | Humidity | Pressure | Rain* | Wind** | Luminosity | Snow |
|---|---|---|---|---|---|---|---|
| 1777868416 | 2.22° C | 94% | 989.6 hPa | 1.02 mm | - | - | - |
| 1777868117 | 1.67° C | 93% | 989.5 hPa | 0.76 mm | - | - | - |
| 1777867516 | 1.67° C | 93% | 989.1 hPa | 0.76 mm | - | - | - |
| 1777867216 | 1.67° C | 93% | 989.1 hPa | 0.76 mm | - | - | - |
| 1777866916 | 1.67° C | 93% | 988.9 hPa | 0.76 mm | - | - | - |
| 1777866017 | 1.67° C | 93% | 988.3 hPa | 0.51 mm | - | - | - |
| 1777865716 | 1.67° C | 93% | 988.1 hPa | 0.51 mm | - | - | - |
| 1777865117 | 1.67° C | 93% | 987.8 hPa | 0.51 mm | - | - | - |
| 1777864817 | 1.67° C | 93% | 987.7 hPa | 0.51 mm | - | - | - |
| 1777847717 | 5° C | 94% | 981.2 hPa | 1.27 mm | - | - | - |
| 1777847117 | 5° C | 94% | 981.3 hPa | 1.02 mm | - | - | - |
| 1777846817 | 5.56° C | 94% | 981.5 hPa | 1.02 mm | - | - | - |
| 1777846517 | 5° C | 94% | 981.9 hPa | 0.76 mm | - | - | - |
| 1777845317 | 5° C | 94% | 982.6 hPa | 0.51 mm | - | - | - |
| 1777844717 | 5° C | 94% | 983 hPa | 0.51 mm | - | - | - |
| 1777844117 | 5° C | 94% | 983.1 hPa | 0.76 mm | - | - | - |
| 1777843517 | 5° C | 94% | 983.7 hPa | 1.52 mm | - | - | - |
| 1777843217 | 5° C | 94% | 984.3 hPa | 1.52 mm | - | - | - |
| 1777842317 | 5° C | 94% | 985 hPa | 2.29 mm | - | - | - |
| 1777842017 | 5° C | 94% | 985.1 hPa | 2.03 mm | - | - | - |
| 1777841117 | 5° C | 94% | 986 hPa | 2.03 mm | - | - | - |
| 1777840517 | 5° C | 94% | 986.5 hPa | 1.78 mm | - | - | - |
| 1777840217 | 5° C | 94% | 986.8 hPa | 1.52 mm | - | - | - |
| 1777839917 | 5° C | 94% | 986.8 hPa | 1.52 mm | - | - | - |
| 1777839617 | 5° C | 94% | 987.3 hPa | 1.52 mm | - | - | - |
* Rain latest hour (hover to see other rain measurements)
** Current wind speed in m/s (hover to see current wind gust speed)